| time (UTC) | temp F | wind direction | speed MPH | gust MPH | rain 1hr in | rain 24hr in | rain mn in | humidity % | barometer mb |
| 20260502170409 | 59 | 101 | 1.0 | 2.0 | 0.00 | 0.00 | 0.00 | 47 | 1011.1 |
| 20260502164339 | 59 | 5 | 1.0 | 4.0 | 0.00 | 0.00 | 0.00 | 52 | 1011.0 |
| 20260502163841 | 59 | 314 | 1.0 | 4.0 | 0.00 | 0.00 | 0.00 | 51 | 1011.0 |
| 20260502163353 | 59 | 90 | 0.0 | 2.0 | 0.00 | 0.00 | 0.00 | 51 | 1011.1 |
| 20260502162848 | 59 | 97 | 0.0 | 2.0 | 0.00 | 0.00 | 0.00 | 51 | 1011.1 |
| 20260502162329 | 59 | 88 | 1.0 | 5.0 | 0.00 | 0.00 | 0.00 | 50 | 1011.2 |
| 20260502161854 | 58 | 63 | 1.0 | 5.0 | 0.00 | 0.00 | 0.00 | 52 | 1011.2 |
| 20260502161329 | 59 | 218 | 1.0 | 4.0 | 0.00 | 0.00 | 0.00 | 51 | 1011.1 |
| 20260502160830 | 59 | 271 | 1.0 | 3.0 | 0.00 | 0.00 | 0.00 | 51 | 1011.1 |
| 20260502160347 | 59 | 155 | 1.0 | 2.0 | 0.00 | 0.00 | 0.00 | 51 | 1011.3 |
| 20260502151847 | 58 | 48 | 0.0 | 2.0 | 0.00 | 0.00 | 0.00 | 58 | 1011.4 |
| 20260502151401 | 58 | 180 | 1.0 | 2.0 | 0.00 | 0.00 | 0.00 | 58 | 1011.5 |
| 20260502150840 | 58 | 181 | 0.0 | 4.0 | 0.00 | 0.00 | 0.00 | 60 | 1011.6 |
| 20260502150331 | 57 | 183 | 1.0 | 4.0 | 0.00 | 0.00 | 0.00 | 57 | 1011.6 |
| 20260502130347 | 56 | 316 | 1.0 | 3.0 | 0.00 | 0.00 | 0.00 | 66 | 1010.8 |
| 20260502123336 | 56 | 159 | 1.0 | 3.0 | 0.00 | 0.00 | 0.00 | 69 | 1010.7 |
| 20260502122832 | 56 | 15 | 0.0 | 2.0 | 0.00 | 0.00 | 0.00 | 69 | 1010.6 |
| 20260502122401 | 55 | 202 | 0.0 | 2.0 | 0.00 | 0.00 | 0.00 | 71 | 1010.7 |
| 20260502121846 | 55 | 173 | 0.0 | 2.0 | 0.00 | 0.00 | 0.00 | 71 | 1010.8 |
| 20260502121344 | 55 | 20 | 0.0 | 2.0 | 0.00 | 0.00 | 0.00 | 71 | 1010.8 |
| 20260502120830 | 55 | 338 | 0.0 | 2.0 | 0.00 | 0.00 | 0.00 | 72 | 1010.8 |
| 20260502120356 | 55 | 338 | 0.0 | 2.0 | 0.00 | 0.00 | 0.00 | 72 | 1010.7 |
| 20260502115849 | 55 | 79 | 0.0 | 1.0 | 0.00 | 0.00 | 0.00 | 72 | 1010.7 |
| 20260502115407 | 55 | 91 | 0.0 | 1.0 | 0.00 | 0.00 | 0.00 | 73 | 1010.6 |
| 20260502114852 | 55 | 148 | 0.0 | 1.0 | 0.00 | 0.00 | 0.00 | 74 | 1010.8 |
| 20260502114350 | 54 | 146 | 0.0 | 1.0 | 0.00 | 0.00 | 0.00 | 75 | 1010.8 |
| 20260502113849 | 54 | 144 | 0.0 | 1.0 | 0.00 | 0.00 | 0.00 | 75 | 1010.7 |
| 20260502113341 | 54 | 144 | 0.0 | 1.0 | 0.00 | 0.00 | 0.00 | 76 | 1010.8 |
| 20260502112843 | 54 | 144 | 0.0 | 0.0 | 0.00 | 0.00 | 0.00 | 77 | 1010.8 |
| 20260502112419 | 54 | 144 | 0.0 | 1.0 | 0.00 | 0.00 | 0.00 | 77 | 1010.9 |
| 20260502111837 | 54 | 144 | 0.0 | 1.0 | 0.00 | 0.00 | 0.00 | 78 | 1010.9 |
| 20260502111340 | 54 | 144 | 0.0 | 0.0 | 0.00 | 0.00 | 0.00 | 79 | 1010.9 |
| 20260502110925 | 54 | 144 | 0.0 | 0.0 | 0.00 | 0.00 | 0.00 | 79 | 1010.9 |
| 20260502110404 | 53 | 144 | 0.0 | 0.0 | 0.00 | 0.00 | 0.00 | 80 | 1010.8 |
| 20260502105847 | 53 | 144 | 0.0 | 0.0 | 0.00 | 0.00 | 0.00 | 80 | 1010.8 |
| 20260502105342 | 53 | 143 | 0.0 | 1.0 | 0.00 | 0.00 | 0.00 | 81 | 1010.7 |
| 20260502104847 | 53 | 143 | 0.0 | 0.0 | 0.00 | 0.00 | 0.00 | 81 | 1010.4 |
| 20260502104333 | 53 | 342 | 0.0 | 0.0 | 0.00 | 0.00 | 0.00 | 81 | 1010.3 |
| 20260502103837 | 53 | 344 | 0.0 | 0.0 | 0.00 | 0.00 | 0.00 | 81 | 1010.2 |
| 20260502103407 | 53 | 340 | 0.0 | 1.0 | 0.00 | 0.00 | 0.00 | 81 | 1010.1 |
| 20260502102837 | 53 | 71 | 0.0 | 1.0 | 0.00 | 0.00 | 0.00 | 82 | 1010.0 |
| 20260502102336 | 53 | 71 | 0.0 | 1.0 | 0.00 | 0.00 | 0.00 | 82 | 1010.0 |
| 20260502101857 | 53 | 71 | 0.0 | 0.0 | 0.00 | 0.00 | 0.00 | 82 | 1010.1 |
| 20260502101405 | 53 | 71 | 0.0 | 0.0 | 0.00 | 0.00 | 0.00 | 83 | 1010.0 |
| 20260502100843 | 53 | 71 | 0.0 | 0.0 | 0.00 | 0.00 | 0.00 | 83 | 1010.1 |
| 20260502100401 | 53 | 71 | 0.0 | 0.0 | 0.00 | 0.00 | 0.00 | 83 | 1010.2 |
| 20260502091335 | 53 | 71 | 0.0 | 0.0 | 0.00 | 0.00 | 0.00 | 84 | 1009.8 |
| 20260502090837 | 53 | 71 | 0.0 | 0.0 | 0.00 | 0.00 | 0.00 | 84 | 1009.8 |
| 20260502090424 | 53 | 71 | 0.0 | 0.0 | 0.00 | 0.00 | 0.00 | 84 | 1009.7 |
| 20260502071352 | 52 | 71 | 0.0 | 0.0 | 0.00 | 0.00 | 0.00 | 85 | 1009.2 |
| 20260502070901 | 52 | 71 | 0.0 | 0.0 | 0.00 | 0.00 | 0.00 | 85 | 1009.2 |
| 20260502070351 | 52 | 71 | 0.0 | 0.0 | 0.00 | 0.00 | 0.00 | 84 | 1009.1 |
| 20260502065843 | 52 | 71 | 0.0 | 0.0 | 0.00 | 0.00 | 0.00 | 84 | 1009.0 |
| 20260502065401 | 52 | 71 | 0.0 | 0.0 | 0.00 | 0.00 | 0.00 | 84 | 1009.0 |
| 20260502064839 | 52 | 71 | 0.0 | 0.0 | 0.00 | 0.00 | 0.00 | 84 | 1009.1 |
| 20260502064333 | 52 | 71 | 0.0 | 0.0 | 0.00 | 0.00 | 0.00 | 84 | 1009.1 |
| 20260502063842 | 52 | 71 | 0.0 | 0.0 | 0.00 | 0.00 | 0.00 | 83 | 1009.2 |
| 20260502063335 | 52 | 71 | 0.0 | 0.0 | 0.00 | 0.00 | 0.00 | 83 | 1009.3 |
| 20260502062830 | 52 | 71 | 0.0 | 0.0 | 0.00 | 0.00 | 0.00 | 82 | 1009.5 |
| 20260502062325 | 53 | 71 | 0.0 | 0.0 | 0.00 | 0.00 | 0.00 | 82 | 1009.5 |
| 20260502061901 | 53 | 71 | 0.0 | 0.0 | 0.00 | 0.00 | 0.00 | 82 | 1009.6 |
| 20260502061352 | 53 | 71 | 0.0 | 0.0 | 0.00 | 0.00 | 0.00 | 82 | 1009.8 |
| 20260502060840 | 53 | 71 | 0.0 | 0.0 | 0.00 | 0.00 | 0.00 | 81 | 1009.9 |
| 20260502060332 | 53 | 71 | 0.0 | 0.0 | 0.00 | 0.00 | 0.00 | 81 | 1009.9 |
| 20260502055828 | 53 | 71 | 0.0 | 0.0 | 0.00 | 0.00 | 0.00 | 81 | 1010.0 |
| 20260502055336 | 54 | 71 | 0.0 | 0.0 | 0.00 | 0.00 | 0.00 | 81 | 1010.1 |
| 20260502054853 | 54 | 71 | 0.0 | 0.0 | 0.00 | 0.00 | 0.00 | 80 | 1010.1 |
| 20260502054333 | 54 | 71 | 0.0 | 0.0 | 0.00 | 0.00 | 0.00 | 80 | 1010.0 |
| 20260502053849 | 54 | 71 | 0.0 | 0.0 | 0.00 | 0.00 | 0.00 | 79 | 1010.1 |
| 20260502053353 | 54 | 71 | 0.0 | 0.0 | 0.00 | 0.00 | 0.00 | 79 | 1010.2 |
| 20260502052829 | 54 | 71 | 0.0 | 0.0 | 0.00 | 0.00 | 0.00 | 79 | 1010.2 |
| 20260502052329 | 55 | 71 | 0.0 | 0.0 | 0.00 | 0.00 | 0.00 | 78 | 1010.2 |
| 20260502051903 | 55 | 71 | 0.0 | 0.0 | 0.00 | 0.00 | 0.00 | 78 | 1010.3 |
| 20260502051336 | 55 | 71 | 0.0 | 1.0 | 0.00 | 0.00 | 0.00 | 78 | 1010.3 |
| 20260502050842 | 55 | 71 | 0.0 | 1.0 | 0.00 | 0.00 | 0.00 | 78 | 1010.2 |
| 20260502050347 | 55 | 71 | 0.0 | 0.0 | 0.00 | 0.00 | 0.00 | 77 | 1010.4 |
| 20260502045852 | 55 | 71 | 0.0 | 0.0 | 0.00 | 0.00 | 0.00 | 77 | 1010.4 |
| 20260502045401 | 55 | 71 | 0.0 | 0.0 | 0.00 | 0.00 | 0.00 | 76 | 1010.4 |
| 20260502044837 | 55 | 71 | 0.0 | 0.0 | 0.00 | 0.00 | 0.00 | 76 | 1010.4 |
| 20260502044339 | 56 | 71 | 0.0 | 1.0 | 0.00 | 0.00 | 0.00 | 76 | 1010.4 |
| 20260502043836 | 56 | 71 | 0.0 | 1.0 | 0.00 | 0.00 | 0.00 | 76 | 1010.5 |
| 20260502043336 | 56 | 71 | 0.0 | 0.0 | 0.00 | 0.00 | 0.00 | 75 | 1010.6 |
| 20260502042839 | 56 | 71 | 0.0 | 0.0 | 0.00 | 0.00 | 0.00 | 75 | 1010.6 |
| 20260502042353 | 56 | 71 | 0.0 | 0.0 | 0.00 | 0.00 | 0.00 | 75 | 1010.6 |
| 20260502041849 | 56 | 71 | 0.0 | 1.0 | 0.00 | 0.00 | 0.00 | 74 | 1010.6 |
| 20260502041332 | 56 | 71 | 0.0 | 1.0 | 0.00 | 0.00 | 0.00 | 74 | 1010.7 |
| 20260502040835 | 56 | 71 | 0.0 | 2.0 | 0.00 | 0.00 | 0.00 | 74 | 1010.6 |
| 20260502040343 | 56 | 71 | 0.0 | 2.0 | 0.00 | 0.00 | 0.00 | 73 | 1010.7 |
| 20260502035852 | 57 | 71 | 0.0 | 2.0 | 0.00 | 0.00 | 0.00 | 73 | 1010.7 |
| 20260502035334 | 57 | 71 | 0.0 | 2.0 | 0.00 | 0.00 | 0.00 | 72 | 1010.7 |
| 20260502034849 | 57 | 71 | 1.0 | 4.0 | 0.00 | 0.00 | 0.00 | 72 | 1010.8 |
| 20260502034352 | 57 | 110 | 0.0 | 3.0 | 0.00 | 0.00 | 0.00 | 72 | 1010.8 |
| 20260502033848 | 57 | 86 | 0.0 | 3.0 | 0.00 | 0.00 | 0.00 | 72 | 1010.8 |
| 20260502033404 | 57 | 84 | 0.0 | 3.0 | 0.00 | 0.00 | 0.00 | 72 | 1010.7 |
| 20260502032912 | 57 | 84 | 1.0 | 3.0 | 0.00 | 0.00 | 0.00 | 72 | 1010.5 |
| 20260502032358 | 57 | 19 | 0.0 | 3.0 | 0.00 | 0.00 | 0.00 | 72 | 1010.3 |
| 20260502031859 | 57 | 19 | 1.0 | 3.0 | 0.00 | 0.00 | 0.00 | 71 | 1010.2 |
| 20260502031334 | 57 | 49 | 0.0 | 4.0 | 0.00 | 0.00 | 0.00 | 71 | 1010.3 |
| 20260502030842 | 57 | 49 | 1.0 | 4.0 | 0.00 | 0.00 | 0.00 | 71 | 1010.2 |
| 20260502030348 | 57 | 96 | 0.0 | 3.0 | 0.00 | 0.00 | 0.00 | 71 | 1010.2 |
| 20260502025859 | 57 | 5 | 0.0 | 2.0 | 0.00 | 0.00 | 0.00 | 71 | 1010.1 |
| 20260502025358 | 57 | 360 | 0.0 | 2.0 | 0.00 | 0.00 | 0.00 | 70 | 1010.2 |
| 20260502024830 | 58 | 52 | 0.0 | 2.0 | 0.00 | 0.00 | 0.00 | 70 | 1010.3 |
| 20260502024346 | 58 | 55 | 1.0 | 2.0 | 0.00 | 0.00 | 0.00 | 70 | 1010.3 |
| 20260502023844 | 58 | 42 | 0.0 | 4.0 | 0.00 | 0.00 | 0.00 | 69 | 1010.3 |
| 20260502023348 | 58 | 49 | 1.0 | 3.0 | 0.00 | 0.00 | 0.00 | 69 | 1010.4 |
| 20260502022848 | 58 | 61 | 0.0 | 3.0 | 0.00 | 0.00 | 0.00 | 69 | 1010.4 |
| 20260502022351 | 58 | 59 | 0.0 | 3.0 | 0.00 | 0.00 | 0.00 | 68 | 1010.4 |
| 20260502021856 | 58 | 22 | 1.0 | 3.0 | 0.00 | 0.00 | 0.00 | 68 | 1010.5 |
| 20260502021333 | 58 | 122 | 0.0 | 4.0 | 0.00 | 0.00 | 0.00 | 68 | 1010.5 |
| 20260502020838 | 58 | 122 | 0.0 | 4.0 | 0.00 | 0.00 | 0.00 | 68 | 1010.6 |
| 20260502020339 | 58 | 355 | 0.0 | 2.0 | 0.00 | 0.00 | 0.00 | 68 | 1010.5 |
| 20260502015829 | 57 | 355 | 0.0 | 3.0 | 0.00 | 0.00 | 0.00 | 68 | 1010.4 |
| 20260502015330 | 57 | 69 | 0.0 | 2.0 | 0.00 | 0.00 | 0.00 | 69 | 1010.4 |
| 20260502014849 | 57 | 70 | 0.0 | 2.0 | 0.00 | 0.00 | 0.00 | 69 | 1010.3 |
| 20260502014349 | 57 | 36 | 0.0 | 1.0 | 0.00 | 0.00 | 0.00 | 69 | 1010.3 |
| 20260502013909 | 56 | 13 | 0.0 | 2.0 | 0.00 | 0.00 | 0.00 | 70 | 1010.3 |
| 20260502013332 | 56 | 360 | 0.0 | 1.0 | 0.00 | 0.00 | 0.00 | 70 | 1010.3 |
| 20260502012904 | 56 | 355 | 0.0 | 2.0 | 0.00 | 0.00 | 0.00 | 71 | 1010.1 |
| 20260502012400 | 56 | 355 | 0.0 | 2.0 | 0.00 | 0.00 | 0.00 | 71 | 1010.1 |
| 20260502011839 | 55 | 348 | 0.0 | 2.0 | 0.00 | 0.00 | 0.00 | 71 | 1010.1 |
| 20260502011339 | 55 | 348 | 0.0 | 1.0 | 0.00 | 0.00 | 0.00 | 71 | 1010.1 |
| 20260502010841 | 55 | 348 | 0.0 | 1.0 | 0.00 | 0.00 | 0.00 | 70 | 1010.1 |
| 20260502010345 | 56 | 348 | 0.0 | 0.0 | 0.00 | 0.00 | 0.00 | 69 | 1009.9 |
| 20260502005918 | 56 | 348 | 0.0 | 0.0 | 0.00 | 0.00 | 0.00 | 68 | 1009.7 |
| 20260502005356 | 56 | 348 | 0.0 | 0.0 | 0.00 | 0.00 | 0.00 | 67 | 1009.7 |
| 20260502004834 | 57 | 348 | 0.0 | 0.0 | 0.00 | 0.00 | 0.00 | 67 | 1009.5 |
| 20260502004359 | 57 | 348 | 0.0 | 0.0 | 0.00 | 0.00 | 0.00 | 66 | 1009.6 |
| 20260502003901 | 57 | 348 | 0.0 | 0.0 | 0.00 | 0.00 | 0.00 | 65 | 1009.5 |
| 20260502003347 | 58 | 348 | 0.0 | 0.0 | 0.00 | 0.00 | 0.00 | 64 | 1009.5 |
| 20260502002901 | 58 | 348 | 0.0 | 0.0 | 0.00 | 0.00 | 0.00 | 63 | 1009.6 |
| 20260502002401 | 58 | 348 | 0.0 | 0.0 | 0.00 | 0.00 | 0.00 | 62 | 1009.6 |
| 20260502001902 | 59 | 348 | 0.0 | 0.0 | 0.00 | 0.00 | 0.00 | 61 | 1009.6 |
| 20260502001344 | 59 | 348 | 0.0 | 0.0 | 0.00 | 0.00 | 0.00 | 60 | 1009.6 |
| 20260502000905 | 60 | 348 | 0.0 | 0.0 | 0.00 | 0.00 | 0.00 | 60 | 1009.6 |
| 20260502000347 | 60 | 348 | 0.0 | 0.0 | 0.00 | 0.00 | 0.00 | 60 | 1009.6 |
| 20260501235832 | 61 | 348 | 0.0 | 0.0 | 0.00 | 0.00 | 0.00 | 59 | 1009.6 |
| 20260501235345 | 61 | 348 | 0.0 | 0.0 | 0.00 | 0.00 | 0.00 | 58 | 1009.6 |
| 20260501234834 | 61 | 348 | 0.0 | 0.0 | 0.00 | 0.00 | 0.00 | 57 | 1009.6 |
| 20260501234334 | 62 | 348 | 0.0 | 1.0 | 0.00 | 0.00 | 0.00 | 56 | 1009.7 |
| 20260501233846 | 62 | 348 | 0.0 | 1.0 | 0.00 | 0.00 | 0.00 | 55 | 1009.7 |
| 20260501233343 | 63 | 348 | 0.0 | 1.0 | 0.00 | 0.00 | 0.00 | 55 | 1009.7 |
| 20260501232841 | 63 | 348 | 0.0 | 1.0 | 0.00 | 0.00 | 0.00 | 54 | 1009.6 |
| 20260501232419 | 63 | 348 | 0.0 | 1.0 | 0.00 | 0.00 | 0.00 | 54 | 1009.6 |
| 20260501231842 | 64 | 348 | 0.0 | 1.0 | 0.00 | 0.00 | 0.00 | 52 | 1009.5 |
| 20260501231336 | 64 | 344 | 0.0 | 1.0 | 0.00 | 0.00 | 0.00 | 51 | 1009.6 |
| 20260501230912 | 64 | 318 | 0.0 | 1.0 | 0.00 | 0.00 | 0.00 | 50 | 1009.6 |
| 20260501230349 | 65 | 318 | 0.0 | 1.0 | 0.00 | 0.00 | 0.00 | 49 | 1009.5 |
| 20260501225841 | 65 | 318 | 0.0 | 2.0 | 0.00 | 0.00 | 0.00 | 48 | 1009.5 |
| 20260501225346 | 65 | 318 | 1.0 | 2.0 | 0.00 | 0.00 | 0.00 | 46 | 1009.5 |
| 20260501224850 | 65 | 89 | 0.0 | 4.0 | 0.00 | 0.00 | 0.00 | 47 | 1009.3 |
| 20260501224403 | 66 | 98 | 0.0 | 7.0 | 0.00 | 0.00 | 0.00 | 45 | 1009.4 |
| 20260501223836 | 66 | 184 | 0.0 | 3.0 | 0.00 | 0.00 | 0.00 | 45 | 1009.5 |
| 20260501223341 | 66 | 185 | 1.0 | 5.0 | 0.00 | 0.00 | 0.00 | 45 | 1009.5 |
| 20260501222840 | 66 | 30 | 1.0 | 5.0 | 0.00 | 0.00 | 0.00 | 46 | 1009.4 |
| 20260501222352 | 66 | 29 | 1.0 | 2.0 | 0.00 | 0.00 | 0.00 | 45 | 1009.4 |
| 20260501221847 | 66 | 37 | 0.0 | 2.0 | 0.00 | 0.00 | 0.00 | 45 | 1009.4 |
| 20260501221355 | 67 | 38 | 0.0 | 2.0 | 0.00 | 0.00 | 0.00 | 44 | 1009.4 |
| 20260501220844 | 67 | 38 | 0.0 | 5.0 | 0.00 | 0.00 | 0.00 | 43 | 1009.4 |
| 20260501220345 | 67 | 36 | 1.0 | 5.0 | 0.00 | 0.00 | 0.00 | 43 | 1009.4 |
| 20260501215902 | 67 | 13 | 1.0 | 5.0 | 0.00 | 0.00 | 0.00 | 41 | 1009.4 |
| 20260501215418 | 67 | 70 | 1.0 | 3.0 | 0.00 | 0.00 | 0.00 | 41 | 1009.4 |
| 20260501214836 | 67 | 37 | 0.0 | 2.0 | 0.00 | 0.00 | 0.00 | 40 | 1009.4 |
| 20260501214329 | 67 | 36 | 1.0 | 4.0 | 0.00 | 0.00 | 0.00 | 40 | 1009.4 |
| 20260501213859 | 67 | 61 | 1.0 | 3.0 | 0.00 | 0.00 | 0.00 | 40 | 1009.4 |
| 20260501213402 | 67 | 31 | 1.0 | 4.0 | 0.00 | 0.00 | 0.00 | 40 | 1009.2 |
| 20260501212858 | 67 | 31 | 0.0 | 4.0 | 0.00 | 0.00 | 0.00 | 40 | 1009.5 |
| 20260501212335 | 68 | 344 | 1.0 | 2.0 | 0.00 | 0.00 | 0.00 | 40 | 1009.6 |
| 20260501211850 | 68 | 344 | 0.0 | 3.0 | 0.00 | 0.00 | 0.00 | 38 | 1009.5 |
| 20260501211340 | 68 | 348 | 0.0 | 3.0 | 0.00 | 0.00 | 0.00 | 39 | 1009.5 |
| 20260501210852 | 69 | 85 | 0.0 | 3.0 | 0.00 | 0.00 | 0.00 | 39 | 1009.6 |
| 20260501210328 | 69 | 71 | 0.0 | 3.0 | 0.00 | 0.00 | 0.00 | 40 | 1009.8 |
| 20260501205857 | 70 | 71 | 1.0 | 5.0 | 0.00 | 0.00 | 0.00 | 37 | 1009.8 |
| 20260501205342 | 70 | 44 | 0.0 | 5.0 | 0.00 | 0.00 | 0.00 | 37 | 1009.8 |
| 20260501204845 | 70 | 42 | 1.0 | 4.0 | 0.00 | 0.00 | 0.00 | 37 | 1009.8 |
| 20260501204407 | 70 | 45 | 1.0 | 4.0 | 0.00 | 0.00 | 0.00 | 36 | 1009.8 |
| 20260501203855 | 70 | 38 | 0.0 | 4.0 | 0.00 | 0.00 | 0.00 | 38 | 1009.9 |
| 20260501203405 | 70 | 58 | 0.0 | 4.0 | 0.00 | 0.00 | 0.00 | 36 | 1009.9 |
| 20260501202837 | 69 | 18 | 0.0 | 4.0 | 0.00 | 0.00 | 0.00 | 37 | 1010.1 |
| 20260501202342 | 69 | 5 | 2.0 | 4.0 | 0.00 | 0.00 | 0.00 | 34 | 1010.0 |
| 20260501201856 | 70 | 155 | 0.0 | 2.0 | 0.00 | 0.00 | 0.00 | 34 | 1010.1 |
| 20260501201351 | 69 | 30 | 0.0 | 4.0 | 0.00 | 0.00 | 0.00 | 37 | 1010.2 |
| 20260501200834 | 68 | 277 | 1.0 | 4.0 | 0.00 | 0.00 | 0.00 | 40 | 1010.3 |
| 20260501200338 | 68 | 28 | 0.0 | 1.0 | 0.00 | 0.00 | 0.00 | 36 | 1010.5 |
| 20260501195839 | 68 | 28 | 0.0 | 3.0 | 0.00 | 0.00 | 0.00 | 38 | 1010.6 |
| 20260501195352 | 69 | 28 | 0.0 | 2.0 | 0.00 | 0.00 | 0.00 | 38 | 1010.7 |
| 20260501194901 | 69 | 21 | 0.0 | 3.0 | 0.00 | 0.00 | 0.00 | 36 | 1010.6 |
| 20260501194345 | 69 | 342 | 0.0 | 3.0 | 0.00 | 0.00 | 0.00 | 37 | 1010.6 |
| 20260501193902 | 69 | 36 | 1.0 | 3.0 | 0.00 | 0.00 | 0.00 | 37 | 1010.6 |
| 20260501193334 | 69 | 36 | 2.0 | 3.0 | 0.00 | 0.00 | 0.00 | 35 | 1010.7 |
| 20260501192901 | 68 | 188 | 0.0 | 2.0 | 0.00 | 0.00 | 0.00 | 39 | 1010.9 |
| 20260501192352 | 68 | 192 | 1.0 | 2.0 | 0.00 | 0.00 | 0.00 | 38 | 1011.0 |
| 20260501191837 | 67 | 166 | 0.0 | 3.0 | 0.00 | 0.00 | 0.00 | 39 | 1011.1 |
| 20260501191329 | 67 | 50 | 1.0 | 5.0 | 0.00 | 0.00 | 0.00 | 37 | 1011.2 |
| 20260501190845 | 67 | 50 | 0.0 | 5.0 | 0.00 | 0.00 | 0.00 | 38 | 1011.4 |
| 20260501190331 | 68 | 26 | 1.0 | 3.0 | 0.00 | 0.00 | 0.00 | 37 | 1011.4 |
| 20260501185831 | 68 | 87 | 1.0 | 5.0 | 0.00 | 0.00 | 0.00 | 36 | 1011.5 |
| 20260501185334 | 68 | 83 | 1.0 | 5.0 | 0.00 | 0.00 | 0.00 | 36 | 1011.7 |
| 20260501184854 | 68 | 303 | 1.0 | 3.0 | 0.00 | 0.00 | 0.00 | 34 | 1011.8 |
| 20260501184358 | 68 | 121 | 1.0 | 4.0 | 0.00 | 0.00 | 0.00 | 35 | 1011.8 |
| 20260501183845 | 68 | 303 | 1.0 | 4.0 | 0.00 | 0.00 | 0.00 | 33 | 1011.8 |
| 20260501183405 | 68 | 66 | 1.0 | 3.0 | 0.00 | 0.00 | 0.00 | 32 | 1011.7 |
| 20260501182830 | 68 | 71 | 1.0 | 3.0 | 0.00 | 0.00 | 0.00 | 33 | 1011.9 |
| 20260501182340 | 69 | 66 | 1.0 | 3.0 | 0.00 | 0.00 | 0.00 | 28 | 1012.0 |
| 20260501181903 | 69 | 15 | 1.0 | 3.0 | 0.00 | 0.00 | 0.00 | 31 | 1012.1 |
| 20260501181341 | 68 | 34 | 1.0 | 4.0 | 0.00 | 0.00 | 0.00 | 32 | 1012.1 |
| 20260501180829 | 68 | 10 | 2.0 | 4.0 | 0.00 | 0.00 | 0.00 | 33 | 1012.1 |
| 20260501180331 | 67 | 84 | 1.0 | 4.0 | 0.00 | 0.00 | 0.00 | 36 | 1012.2 |
| 20260501175830 | 67 | 51 | 2.0 | 4.0 | 0.00 | 0.00 | 0.00 | 35 | 1012.1 |